This demonstration page uses our WeatherBlox Daily Observations layout. Learn more.

Left ArrowRight Arrow

39.01783, -85.05884

Hourly Observations for October 4, 2016

Temp ( °F °C ) Dew Point ( °F °C ) Humidity (%) Winds ( mph kmh ) Pressure ( in mb ) Visibility ( mi km ) Precip ( " mm )
12:52 am 00:52 Clear 60 15.6 56 13.3 86 86 E 5 7 30.05 1018 10 16 0.00 0.00
1:52 am 01:52 Clear 60 15.6 55 12.8 84 84 E 5 7 30.06 1018 10 16 0.00 0.00
2:52 am 02:52 Clear 59 15 55 12.8 87 87 E 5 7 30.06 1018 10 16 0.00 0.00
3:52 am 03:52 Clear 58 14.4 54 12.2 87 87 ESE 6 9 30.06 1018 10 16 0.00 0.00
4:52 am 04:52 Mostly Clear 57 13.9 54 12.2 90 90 E 6 9 30.06 1018 10 16 0.00 0.00
5:52 am 05:52 Mostly Clear 58 14.4 54 12.2 87 87 E 6 9 30.06 1018 10 16 0.00 0.00
6:52 am 06:52 Cloudy 59 15 55 12.8 87 87 E 9 15 30.08 1019 10 16 0.00 0.00
7:52 am 07:52 Mostly Cloudy 60 15.6 54 12.2 80 80 ENE 7 11 30.09 1019 10 16 0.00 0.00
8:52 am 08:52 Partly Cloudy 61 16.1 55 12.8 81 81 E 3 6 30.09 1019 10 16 0.00 0.00
9:52 am 09:52 Cloudy 63 17.2 56 13.3 78 78 ESE 6 9 30.11 1020 10 16 0.00 0.00
10:52 am 10:52 Cloudy 65 18.3 57 13.9 76 76 E 8 13 30.11 1020 10 16 0.00 0.00
11:52 am 11:52 Cloudy 70 21.1 58 14.4 66 66 E 8 13 30.09 1019 10 16 0.00 0.00
12:52 pm 12:52 Mostly Sunny 75 23.9 60 15.6 60 60 ESE 10 17 30.08 1019 10 16 0.00 0.00
1:52 pm 13:52 Mostly Sunny 77 25 59 15 54 54 SE 8 13 30.06 1018 10 16 0.00 0.00
2:52 pm 14:52 Partly Cloudy 78 25.6 58 14.4 50 50 ESE 8 13 30.05 1018 10 16 0.00 0.00
3:52 pm 15:52 Partly Cloudy 78 25.6 58 14.4 50 50 SE 6 9 30.04 1017 10 16 0.00 0.00
4:52 pm 16:52 Partly Cloudy 79 26.1 57 13.9 47 47 ESE 7 11 30.03 1017 10 16 0.00 0.00
5:52 pm 17:52 Partly Cloudy 77 25 58 14.4 52 52 SE 10 17 30.03 1017 10 16 0.00 0.00
6:52 pm 18:52 Mostly Cloudy 75 23.9 60 15.6 60 60 ESE 7 11 30.03 1017 10 16 0.00 0.00
7:52 pm 19:52 Mostly Cloudy 72 22.2 59 15 64 64 ESE 6 9 30.03 1017 10 16 0.00 0.00
8:52 pm 20:52 Mostly Cloudy 70 21.1 60 15.6 71 71 SE 6 9 30.04 1017 10 16 0.00 0.00
9:52 pm 21:52 Partly Cloudy 69 20.6 61 16.1 76 76 ESE 8 13 30.05 1018 10 16 0.00 0.00
10:52 pm 22:52 Partly Cloudy 69 20.6 61 16.1 76 76 SE 10 17 30.06 1018 10 16 0.00 0.00
11:52 pm 23:52 Partly Cloudy 68 20 61 16.1 78 78 ESE 10 17 30.05 1018 10 16 0.00 0.00

Powered by AerisWeather